[[{"header":{"parameterUnit":"m.s-1","parameterCategory":1,"la1":30.2991,"la2":30.254,"lo1":-89.0895,"lo2":-89.0444,"dy":0.0017,"dx":0.0017,"nx":28,"ny":28,"refTime":"2025-08-25T03:00:00:Z","depth":0,"parameterNumber":2,"parameterNumberName":"U-component_of_WINDS"},"data":[0,0,0,0,0,0,0,0,0,0,0,0,0,0,0,0,0,0,0,0,0,0,0,0,0,0,0,0,0,0,0,0,0,0,0,0,0,0,0,0,0,0,0,0,0,0,0,0,0,0,0,0,0,0,0,0,0,0,-3.7193,-3.7194,0,-3.7317,-3.7319,-3.732,-3.7272,-3.7269,-3.7266,-3.7264,-3.739,-3.7396,-3.7402,0,0,0,0,0,0,0,0,0,0,0,0,0,-3.6913,-3.6918,-3.7193,-3.7195,-3.7196,-3.7317,-3.7319,-3.732,-3.7273,-3.7269,-3.7266,-3.7262,-3.7388,-3.7395,-3.7403,0,0,0,0,0,0,0,0,0,0,0,0,0,-3.7036,-3.692,-3.7193,-3.7187,-3.7187,-3.7317,-3.7319,-3.7321,-3.7273,-3.7269,-3.7265,-3.7261,-3.7386,-3.7395,-3.7404,-3.7546,0,0,-3.7431,-3.7435,0,0,0,0,0,0,0,0,-3.7029,-3.7046,-3.7186,-3.7187,-3.7188,-3.7275,-3.7266,-3.7396,-3.7274,-3.7241,-3.7263,-3.7258,-3.7355,-3.7366,-3.7399,-3.7552,-3.7557,-3.7432,-3.7438,-3.7441,-3.7444,0,0,0,0,0,0,0,-3.702,-3.704,-3.7242,-3.7188,-3.719,-3.7177,-3.719,-3.7291,-3.7321,-3.7243,-3.724,-3.7255,-3.7355,-3.7391,-3.7402,-3.7559,-3.7432,-3.744,-3.7445,-3.7449,-3.7833,-3.7837,0,0,0,0,0,0,-3.7012,-3.7034,-3.7238,-3.7246,-3.7096,-3.7186,-3.72,-3.7251,-3.7319,-3.7326,-3.7259,-3.7253,-3.7377,-3.7391,-3.7406,-3.7575,-3.7441,-3.745,-3.7455,-3.7828,-3.7834,-3.7839,0,0,0,0,0,0,-3.7006,-3.703,-3.7233,-3.7139,-3.7164,-3.7195,-3.7253,-3.7256,-3.7292,-3.7331,-3.7336,-3.729,-3.7374,-3.7393,-3.7511,-3.7579,-3.7454,-3.7462,-3.7822,-3.783,-3.7836,-3.7916,0,0,0,0,0,0,-3.6998,-3.7028,-3.7083,-3.7141,-3.7169,-3.7336,-3.7258,-3.7262,-3.7307,-3.73,-3.7362,-3.7368,-3.7372,-3.7498,-3.752,-3.7589,-3.7469,-3.7816,-3.7826,-3.7834,-3.7907,-3.7925,-3.794,0,0,0,0,0,-3.6988,-3.7101,-3.7086,-3.7111,-3.7238,-3.7341,-3.7357,-3.736,-3.7313,-3.7368,-3.7393,-3.7366,-3.7569,-3.751,-3.7535,-3.7608,-3.7812,-3.7823,-3.7833,-3.79,-3.7921,-3.7939,0,0,0,0,0,0,-3.705,-3.7108,-3.7092,-3.7227,-3.7279,-3.7332,-3.7401,-3.7383,-3.7449,-3.744,-3.7441,-3.7456,-3.7577,-3.7604,-3.7538,-3.7748,-3.7683,-3.7699,-3.7725,-3.7746,-3.7762,-3.7751,-3.7477,0,0,0,0,0,-3.708,-3.7158,-3.7205,-3.7319,-3.7346,-3.737,-3.7414,-3.7413,-3.7466,-3.7488,-3.7522,-3.7575,-3.7651,-3.77,-3.7772,-3.7912,-3.7923,-3.7974,-3.7991,-3.8004,-3.8017,-3.8091,-3.8113,-3.7874,-3.7874,-3.7874,0,0,-3.7141,-3.7182,-3.7232,-3.7333,-3.7373,-3.7453,-3.7388,-3.7477,-3.7536,-3.7501,-3.7614,-3.7641,-3.77,-3.7829,-3.7888,-3.7856,-3.8086,-3.8017,-3.8028,-3.8034,-3.8104,-3.8127,-3.8147,-3.7881,-3.788,-3.7879,0,0,-3.7293,-3.7334,-3.7432,-3.7474,-3.7536,-3.755,-3.7574,-3.763,-3.7647,-3.776,-3.7735,-3.7806,-3.7937,-3.798,-3.8018,-3.8188,-3.8164,-3.8211,-3.8295,-3.8367,-3.8386,-3.8403,-3.8461,-3.8482,-3.8225,-3.8225,-3.8225,0,-3.7361,-3.7482,-3.7485,-3.7576,-3.762,-3.7593,-3.7692,-3.7732,-3.7814,-3.7845,-3.7809,-3.7972,-3.801,-3.8147,-3.8188,-3.8222,-3.8248,-3.8203,-3.8383,-3.84,-3.8416,-3.8471,-3.8493,-3.823,-3.8229,-3.8229,-3.8228,0,-3.7562,-3.7646,-3.7718,-3.7798,-3.7851,-3.7945,-3.7962,-3.8015,-3.8009,-3.8028,-3.8143,-3.8188,-3.8268,-3.8301,-3.8296,-3.8438,-3.8416,-3.8382,-3.8316,-3.8443,-3.8495,-3.8517,-3.8237,-3.8236,-3.8234,-3.8233,0,0,-3.7755,-3.7835,-3.7861,-3.7896,-3.7963,-3.8027,-3.8121,-3.8199,-3.8243,-3.8302,-3.8378,-3.849,-3.8458,-3.8503,-3.8503,-3.8567,-3.8695,-3.8524,-3.8526,-3.8552,-3.8851,-3.8873,-3.8898,-3.8681,-3.8685,-3.8688,-3.8845,0,-3.791,-3.8073,-3.8078,-3.8227,-3.8303,-3.8279,-3.836,-3.8409,-3.843,-3.8498,-3.852,-3.8598,-3.8552,-3.8578,-3.8641,-3.8666,-3.8754,-3.8655,-3.875,-3.8754,-3.8733,-3.8926,-3.895,-3.9096,-3.8865,-3.8869,-3.8871,0,-3.8112,-3.8176,-3.8332,-3.8386,-3.8419,-3.8491,-3.8562,-3.8629,-3.8684,-3.8694,-3.8744,-3.8734,-3.8829,-3.8762,-3.8891,-3.8823,-3.8863,-3.8882,-3.8888,-3.8894,-3.8818,-3.8934,-3.9142,-3.9163,-3.8904,-3.8901,-3.8899,0,-3.8233,-3.8359,-3.8468,-3.8499,-3.8566,-3.8617,-3.8647,-3.8699,-3.8745,-3.8808,-3.8837,-3.8911,-3.895,-3.9007,-3.9018,-3.8968,-3.9146,-3.9081,-3.9156,-3.9155,-3.9191,-3.9188,-3.9406,-3.9223,-3.9223,-3.9222,-3.9222,0,-3.8404,-3.85,-3.8523,-3.859,-3.8696,-3.8702,-3.8807,-3.8833,-3.8879,-3.895,-3.8935,-3.9002,-3.9013,-3.9082,-3.9092,-3.9196,-3.9215,-3.9224,-3.9225,-3.9224,-3.9222,-3.9247,-3.9236,-3.9228,-3.9227,-3.9225,-3.9224,0,-3.8556,-3.8576,-3.8692,-3.8747,-3.8762,-3.8838,-3.8884,-3.8947,-3.8967,-3.9056,-3.9078,-3.9108,-3.9188,-3.9206,-3.9302,-3.9308,-3.9431,-3.9423,-3.9412,-3.941,-3.9482,-3.9474,-3.9721,-3.9752,-3.9552,-3.9554,-3.9555,0,-3.8662,-3.8735,-3.8797,-3.8843,-3.8876,-3.8951,-3.8998,-3.9008,-3.9057,-3.9125,-3.918,-3.926,-3.9323,-3.9453,-3.9483,-3.9556,-3.9548,-3.963,-3.9559,-3.9555,-3.9546,-3.954,-3.9546,-3.9642,-3.9644,-3.9646,-3.9648,0,-3.8847,-3.8853,-3.8921,-3.8994,-3.905,-3.9108,-3.9162,-3.9201,-3.9218,-3.9274,-3.9356,-3.9406,-3.9504,-3.9582,-3.9655,-3.9686,-3.9669,-3.967,-3.9691,-3.9688,-3.9677,-3.9681,-3.9445,-3.9664,-3.9662,-3.9661,-3.966,-3.9659,-3.8977,-3.904,-3.9093,-3.9169,-3.9212,-3.9263,-3.9324,-3.9352,-3.942,-3.95,-3.9502,-3.9592,-3.9645,-3.9741,-3.9777,-3.9846,-3.9821,-3.9851,-3.9858,-3.9865,-3.987,-3.967,-3.986,-3.986,-3.986,-3.9859,-3.9859,0,-3.9158,-3.9191,-3.9262,-3.9338,-3.9398,-3.9379,-3.9438,-3.9489,-3.9568,-3.962,-3.9682,-3.9776,-3.9852,-3.9889,-3.9964,-4.0012,-4.0006,-4.0031,-4.0026,-4.0033,-3.989,-3.9863,-4.0035,-4.0035,-4.0035,-4.0035,-4.0035,-4.0035,-3.9259,-3.9364,-3.9376,-3.9502,-3.9534,-3.9621,-3.9656,-3.9703,-3.9744,-3.9849,-3.9912,-3.9936,-3.9981,-4.0059,-4.0128,-4.0136,-4.0163,-4.0191,-4.0196,-4.0061,-4.0043,-4.0026,-4.0001,-4.0198,-4.0198,-4.0332,-4.0333,-4.0334]},{"header":{"parameterUnit":"m.s-1","parameterCategory":1,"la1":30.2991,"la2":30.254,"lo1":-89.0895,"lo2":-89.0444,"dy":0.0017,"dx":0.0017,"nx":28,"ny":28,"refTime":"2025-08-25T03:00:00:Z","depth":0,"parameterNumber":3,"parameterNumberName":"V-component_of_WINDS"},"data":[0,0,0,0,0,0,0,0,0,0,0,0,0,0,0,0,0,0,0,0,0,0,0,0,0,0,0,0,0,0,0,0,0,0,0,0,0,0,0,0,0,0,0,0,0,0,0,0,0,0,0,0,0,0,0,0,0,0,-1.5431,-1.5431,0,-1.5425,-1.5425,-1.5425,-1.542,-1.542,-1.542,-1.5419,-1.5412,-1.5412,-1.5412,0,0,0,0,0,0,0,0,0,0,0,0,0,-1.5435,-1.5435,-1.5431,-1.5431,-1.5431,-1.5425,-1.5425,-1.5425,-1.542,-1.542,-1.542,-1.5419,-1.5412,-1.5412,-1.5412,0,0,0,0,0,0,0,0,0,0,0,0,0,-1.5432,-1.5435,-1.5431,-1.5428,-1.5427,-1.5425,-1.5425,-1.5425,-1.542,-1.542,-1.5419,-1.5419,-1.5412,-1.5412,-1.5411,-1.5412,0,0,-1.5411,-1.5411,0,0,0,0,0,0,0,0,-1.5432,-1.5432,-1.5428,-1.5428,-1.5428,-1.5423,-1.5424,-1.5421,-1.542,-1.5423,-1.5419,-1.5419,-1.5416,-1.5415,-1.5414,-1.5412,-1.5411,-1.5411,-1.5411,-1.5411,-1.5411,0,0,0,0,0,0,0,-1.5432,-1.5432,-1.5429,-1.5428,-1.5428,-1.5425,-1.5425,-1.5423,-1.542,-1.5422,-1.5422,-1.5421,-1.5415,-1.5414,-1.5414,-1.5411,-1.5411,-1.5411,-1.541,-1.541,-1.5406,-1.5406,0,0,0,0,0,0,-1.5433,-1.5432,-1.5429,-1.5429,-1.543,-1.5425,-1.5425,-1.5425,-1.542,-1.5419,-1.5421,-1.5421,-1.5415,-1.5414,-1.5414,-1.5412,-1.5411,-1.541,-1.541,-1.5406,-1.5406,-1.5406,0,0,0,0,0,0,-1.5433,-1.5433,-1.5429,-1.543,-1.543,-1.5426,-1.5425,-1.5425,-1.5424,-1.5419,-1.5418,-1.5421,-1.5415,-1.5414,-1.5412,-1.5412,-1.541,-1.541,-1.5406,-1.5406,-1.5406,-1.5411,0,0,0,0,0,0,-1.5434,-1.5433,-1.5434,-1.543,-1.5429,-1.5429,-1.5425,-1.5424,-1.5423,-1.5423,-1.5418,-1.5418,-1.5414,-1.5412,-1.5412,-1.5412,-1.541,-1.5406,-1.5406,-1.5406,-1.5411,-1.5411,-1.5411,0,0,0,0,0,-1.5434,-1.5436,-1.5434,-1.5434,-1.5431,-1.5429,-1.5428,-1.5425,-1.5423,-1.5424,-1.542,-1.5418,-1.5412,-1.5412,-1.5411,-1.5411,-1.5406,-1.5406,-1.5406,-1.541,-1.5411,-1.5411,0,0,0,0,0,0,-1.544,-1.5435,-1.5433,-1.5435,-1.5432,-1.5428,-1.5428,-1.5426,-1.5423,-1.5423,-1.5418,-1.5417,-1.5416,-1.5413,-1.5413,-1.541,-1.5409,-1.5408,-1.5412,-1.5412,-1.5413,-1.5413,-1.541,0,0,0,0,0,-1.5441,-1.5441,-1.5436,-1.5438,-1.5437,-1.5433,-1.5432,-1.5429,-1.5426,-1.5425,-1.5422,-1.5418,-1.5415,-1.5414,-1.5411,-1.541,-1.5408,-1.5409,-1.541,-1.541,-1.541,-1.5407,-1.5407,-1.5406,-1.5406,-1.5406,0,0,-1.5444,-1.5442,-1.5442,-1.5439,-1.5437,-1.5435,-1.5432,-1.5431,-1.5429,-1.5425,-1.5422,-1.542,-1.5415,-1.5413,-1.5412,-1.5411,-1.5409,-1.541,-1.541,-1.541,-1.5407,-1.5407,-1.5407,-1.5406,-1.5406,-1.5406,0,0,-1.5449,-1.5447,-1.5448,-1.5445,-1.5442,-1.5439,-1.5438,-1.5434,-1.5432,-1.543,-1.5426,-1.5423,-1.5419,-1.5416,-1.5414,-1.5415,-1.5412,-1.5414,-1.5415,-1.5413,-1.5413,-1.5413,-1.5412,-1.5412,-1.5414,-1.5414,-1.5414,0,-1.5453,-1.5451,-1.5448,-1.5446,-1.5445,-1.544,-1.5439,-1.5437,-1.5433,-1.5431,-1.543,-1.5423,-1.542,-1.5416,-1.5416,-1.5415,-1.5414,-1.5414,-1.5413,-1.5413,-1.5413,-1.5412,-1.5412,-1.5414,-1.5414,-1.5414,-1.5414,0,-1.5456,-1.5454,-1.5455,-1.545,-1.5448,-1.5448,-1.5443,-1.5441,-1.5438,-1.5435,-1.5431,-1.5427,-1.5423,-1.5422,-1.5419,-1.5417,-1.5416,-1.5414,-1.5413,-1.5414,-1.5413,-1.5412,-1.5414,-1.5414,-1.5414,-1.5414,0,0,-1.5465,-1.5458,-1.5458,-1.5455,-1.545,-1.5448,-1.5446,-1.5442,-1.544,-1.5436,-1.5434,-1.5429,-1.5427,-1.5424,-1.5421,-1.5419,-1.5418,-1.5417,-1.5417,-1.5416,-1.5413,-1.5414,-1.5414,-1.5416,-1.5416,-1.5416,-1.5413,0,-1.5468,-1.5465,-1.5461,-1.5459,-1.5456,-1.5451,-1.5449,-1.5445,-1.5441,-1.5438,-1.5433,-1.543,-1.5428,-1.5426,-1.5423,-1.5419,-1.5417,-1.5419,-1.5412,-1.5412,-1.5413,-1.5414,-1.5416,-1.5414,-1.5413,-1.5413,-1.5413,0,-1.5472,-1.5468,-1.5466,-1.5459,-1.5458,-1.5456,-1.5451,-1.5448,-1.5443,-1.544,-1.5436,-1.5432,-1.5428,-1.5427,-1.542,-1.5421,-1.5418,-1.5415,-1.5415,-1.5414,-1.5412,-1.5412,-1.5413,-1.5413,-1.5413,-1.5413,-1.5413,0,-1.5477,-1.5472,-1.547,-1.5467,-1.546,-1.5459,-1.5455,-1.545,-1.5447,-1.5442,-1.5439,-1.5434,-1.5431,-1.5426,-1.542,-1.542,-1.5414,-1.5412,-1.541,-1.5411,-1.5409,-1.541,-1.5409,-1.5408,-1.5408,-1.5408,-1.5408,0,-1.5481,-1.548,-1.5472,-1.547,-1.5467,-1.5462,-1.5459,-1.5455,-1.545,-1.5446,-1.5441,-1.5438,-1.5431,-1.5426,-1.5421,-1.5415,-1.5414,-1.5411,-1.541,-1.5411,-1.5412,-1.5409,-1.5409,-1.5408,-1.5408,-1.5408,-1.5408,0,-1.5487,-1.5482,-1.5479,-1.5472,-1.547,-1.5468,-1.5461,-1.5458,-1.5454,-1.5449,-1.5448,-1.544,-1.5434,-1.5428,-1.542,-1.5416,-1.5411,-1.5409,-1.5413,-1.5412,-1.541,-1.541,-1.5408,-1.5407,-1.5407,-1.5407,-1.5407,0,-1.549,-1.5488,-1.5481,-1.5478,-1.5475,-1.5471,-1.5468,-1.5461,-1.5458,-1.545,-1.5448,-1.5442,-1.5436,-1.5427,-1.542,-1.5413,-1.5411,-1.541,-1.541,-1.5411,-1.541,-1.541,-1.5409,-1.5411,-1.5411,-1.5411,-1.5411,0,-1.5495,-1.5492,-1.5488,-1.5482,-1.5478,-1.5473,-1.5468,-1.5466,-1.5459,-1.5455,-1.5448,-1.5444,-1.5435,-1.5428,-1.542,-1.5416,-1.5411,-1.5411,-1.541,-1.5411,-1.5413,-1.5411,-1.5413,-1.5411,-1.5411,-1.5411,-1.5411,-1.5411,-1.5498,-1.5496,-1.549,-1.5485,-1.548,-1.5475,-1.5472,-1.5466,-1.5461,-1.5454,-1.545,-1.5443,-1.5436,-1.5425,-1.542,-1.5414,-1.5413,-1.5412,-1.5411,-1.5411,-1.5411,-1.5414,-1.5412,-1.5412,-1.5412,-1.5412,-1.5412,0,-1.5502,-1.5497,-1.5493,-1.5485,-1.5481,-1.5477,-1.5471,-1.5467,-1.5462,-1.5455,-1.545,-1.5441,-1.5434,-1.5426,-1.5418,-1.5415,-1.5412,-1.5413,-1.5413,-1.5411,-1.5413,-1.5414,-1.5415,-1.5415,-1.5415,-1.5415,-1.5415,-1.5415,-1.5503,-1.5499,-1.5495,-1.5487,-1.5482,-1.5476,-1.5472,-1.5467,-1.5462,-1.5453,-1.5447,-1.5442,-1.5434,-1.5425,-1.5418,-1.5416,-1.5412,-1.5413,-1.541,-1.5412,-1.5411,-1.5411,-1.5412,-1.5413,-1.5413,-1.5409,-1.5409,-1.5409]}]]